Temp
60 60 61 60 61 61 62 62 62 63 63 63 63 63 62 61 59 57 56 56 57 59 64 62 64 67 67 67 68 67 66 67 67 66 66 67 67 66 63 63 65 68 70 71 73 74 74 73 72 71 71 71 72 72 71 71 71 70 70 69 69 69 67 67 68 68 68 69 69 69 68 67 67 67
60 60 61 61 61 61 62 63 63 63 63 63 63 63 63 63 60 59 57 58 58 58 61 64 63 65 67 67 67 68 67 66 66 66 66 66 67 64 62 61 63 65 67 67 67 70 73 74 73 72 72 72 72 72 72 71 71 71 70 69 68 65 65 66 68 68 68 69 69 68 68 68 67 67
61 60 59 61 61 62 62 63 63 63 63 63 63 63 63 63 62 61 60 58 60 61 60 63 66 65 66 67 67 68 68 67 66 66 66 66 65 64 63 60 61 62 62 62 63 64 68 71 72 72 72 71 71 71 71 71 71 70 68 66 65 63 64 66 68 68 68 69 69 68 68 68 67 67
62 61 59 60 60 61 62 62 62 62 63 63 63 63 63 63 63 62 61 59 60 61 61 61 63 66 65 65 66 66 67 67 63 66 66 66 63 64 66 61 60 60 60 60 61 60 63 68 70 71 71 70 71 71 71 70 68 66 65 64 64 63 62 65 68 69 69 69 68 68 68 68 68 68
61 61 60 60 61 62 62 61 62 62 62 63 63 63 63 62 63 62 61 59 60 62 62 61 62 65 65 64 66 66 66 66 65 64 66 66 65 65 65 65 60 59 59 58 58 58 59 61 64 68 70 70 68 68 67 63 63 65 65 64 64 62 60 62 66 68 68 69 68 68 68 68 68 67
59 58 59 60 61 62 61 61 62 62 62 62 62 63 62 62 62 63 61 60 60 60 62 61 63 63 65 64 65 65 64 65 65 65 65 66 65 65 65 64 64 58 58 58 57 57 57 58 59 61 67 68 62 59 60 59 60 62 62 62 62 60 58 59 62 66 68 68 69 68 68 68 67 66
59 59 58 59 60 61 61 61 61 62 61 62 62 62 63 62 62 63 63 61 60 60 61 62 61 61 63 64 64 65 66 65 65 64 65 65 66 66 65 64 65 57 57 57 57 56 56 57 57 57 59 61 60 58 58 58 57 57 58 58 58 57 57 57 58 62 65 66 67 67 67 66 65 65
59 59 58 58 59 61 60 61 61 61 62 61 62 62 62 62 62 62 63 62 61 61 60 60 61 60 60 62 63 63 65 65 65 64 65 66 66 66 65 65 65 61 56 56 56 56 56 56 56 56 56 57 58 57 57 57 57 56 56 57 56 56 56 56 55 57 61 63 63 63 63 63 64 64
58 59 58 58 59 60 60 60 60 60 60 61 61 61 62 62 62 62 62 62 62 61 60 60 59 60 61 61 62 63 63 63 65 65 65 65 65 65 65 65 65 61 55 56 56 56 56 56 55 55 55 56 56 56 56 56 56 56 55 55 55 55 55 55 55 54 55 56 56 56 57 57 59 63
58 58 58 58 59 59 59 59 60 60 59 59 60 61 61 62 62 61 61 61 61 60 60 61 60 59 59 60 61 63 62 62 62 64 65 65 65 64 64 65 66 65 62 60 58 56 55 55 55 55 55 55 55 55 55 55 55 55 55 54 54 54 54 54 53 53 53 53 54 54 54 55 55 58
57 59 59 58 58 59 58 58 59 60 60 59 59 60 61 61 61 61 61 60 59 59 58 59 60 60 61 61 60 63 63 62 63 62 62 62 64 64 63 63 64 62 61 58 58 58 58 58 57 54 53 54 54 54 54 54 54 55 54 53 53 53 53 53 53 53 52 52 52 52 52 52 52 54
56 58 59 58 58 59 59 58 59 60 60 59 59 58 59 60 60 59 59 59 59 58 58 58 58 58 59 60 60 60 61 60 60 61 62 61 61 62 63 63 63 62 61 60 59 58 57 57 57 54 53 54 55 55 54 55 56 55 54 53 52 53 52 53 53 53 52 52 51 51 50 50 49 50
56 58 58 58 58 62 66 66 61 58 58 59 59 60 60 60 60 59 60 59 58 59 59 58 59 58 58 58 58 58 58 58 59 60 61 61 61 62 62 63 64 63 61 61 60 59 59 59 59 58 58 57 56 56 55 56 55 55 54 52 52 52 52 52 52 52 51 51 51 51 50 49 48 48
56 58 59 59 65 66 65 63 54 52 53 57 58 58 58 60 59 59 58 58 59 58 58 58 58 57 56 57 57 57 57 58 59 59 60 59 61 61 62 61 61 63 63 61 60 60 60 59 58 59 58 59 59 58 57 58 58 55 52 51 51 51 51 50 50 50 50 49 50 50 49 48 47 46
56 58 59 58 61 62 61 60 53 51 50 49 50 50 53 56 58 58 56 56 58 58 58 58 58 57 57 58 58 58 59 58 58 58 59 59 59 60 59 59 60 62 63 62 61 59 61 59 55 53 53 53 53 55 55 54 53 53 51 50 50 50 50 49 49 48 48 47 47 47 46 46 46 45
57 58 58 58 58 59 61 59 56 54 50 48 48 48 48 47 47 48 55 57 58 58 58 58 58 57 57 57 58 57 58 58 59 59 58 58 58 58 59 60 59 61 63 62 59 56 57 56 53 51 51 50 50 49 49 48 48 48 48 47 47 47 47 47 47 47 47 46 46 45 45 45 45 45
56 58 57 57 57 57 60 57 56 56 54 52 51 52 52 52 50 44 44 47 56 58 58 57 56 56 57 57 57 58 57 57 59 59 59 58 58 59 58 58 56 57 60 60 57 54 54 54 51 49 49 50 50 49 48 47 47 47 46 46 46 46 46 47 47 47 47 46 46 46 46 46 45 44
55 55 56 55 55 54 54 53 54 57 54 56 55 53 52 52 54 52 49 49 51 56 58 58 56 55 55 55 56 57 56 56 58 59 58 59 58 58 58 57 55 55 56 59 55 51 51 52 50 48 49 50 49 48 47 47 47 47 47 47 47 47 47 47 47 47 47 47 47 47 46 45 45 45
52 52 53 52 52 52 52 53 51 56 56 56 54 53 52 52 52 50 51 51 54 56 55 54 53 53 53 52 52 52 53 55 58 59 60 60 59 57 56 56 56 55 54 56 55 49 50 51 48 48 49 49 49 49 48 48 48 47 47 47 47 46 46 46 47 47 47 47 47 47 46 45 45 45
51 51 50 49 48 50 51 52 43 47 52 56 54 52 53 52 51 50 48 43 47 52 52 51 51 50 49 47 48 49 50 55 59 61 59 57 56 56 55 53 53 52 54 54 54 50 49 51 48 48 50 50 48 49 49 48 48 47 47 47 47 47 47 47 47 47 47 47 47 47 46 46 45 43
52 52 51 48 46 47 48 48 40 40 49 56 54 52 52 51 52 52 52 46 43 42 43 43 44 44 44 45 45 44 43 48 55 57 56 55 56 54 53 53 52 51 51 52 53 50 48 49 49 47 49 49 48 49 49 50 48 47 47 47 47 47 47 47 47 47 47 47 47 47 46 46 47 47
51 51 57 54 47 45 47 44 40 39 51 56 54 53 52 51 51 52 53 54 51 45 45 45 45 45 45 46 47 46 45 46 52 55 53 54 54 53 54 51 51 51 52 50 53 51 48 49 49 48 48 48 49 49 49 49 49 48 48 47 48 48 48 48 48 48 48 48 47 47 46 46 49 53
50 49 52 53 49 46 46 39 40 39 52 56 54 53 53 52 52 52 53 53 52 53 53 52 52 50 51 52 51 52 48 49 52 52 54 55 55 53 53 53 52 52 51 51 52 50 49 49 50 50 49 47 49 50 50 50 50 50 50 50 49 48 48 49 49 48 47 47 48 48 46 45 48 53
49 49 49 50 45 41 40 40 39 40 44 55 55 54 53 52 51 54 54 55 54 53 52 49 48 48 48 48 50 51 51 52 53 51 53 54 55 55 54 51 51 50 49 51 51 52 51 52 50 52 50 47 45 48 49 48 48 49 50 49 48 48 48 48 48 48 47 47 47 48 47 46 47 52
48 46 47 46 47 41 40 40 39 40 42 48 55 54 54 54 53 53 54 55 56 53 52 51 48 47 45 46 47 48 49 50 50 51 51 53 53 53 52 50 49 48 49 50 47 55 52 52 51 50 49 48 47 46 47 48 49 49 50 49 48 50 48 49 49 49 48 48 47 47 46 46 46 50
46 45 45 45 45 40 40 40 39 40 42 43 54 54 47 45 46 55 55 54 53 52 51 49 46 45 45 45 46 47 47 48 49 48 49 49 50 51 52 51 51 50 48 51 47 54 53 52 51 49 48 47 45 46 45 46 48 47 48 50 50 50 48 50 49 49 50 51 51 49 48 46 46 47
49 46 44 45 49 40 40 40 39 41 44 49 49 42 42 44 45 52 52 50 50 49 48 47 45 44 43 44 44 45 45 46 47 47 49 50 51 50 51 51 51 51 51 52 54 54 52 50 51 50 47 46 44 45 45 44 46 47 47 48 49 49 50 49 49 49 49 49 51 49 49 47 45 45
45 43 42 44 40 40 40 40 40 40 46 48 42 43 43 44 48 51 49 48 48 46 44 44 43 44 42 43 44 45 46 46 46 48 48 49 50 51 51 51 51 51 51 52 52 54 54 52 50 50 48 46 45 43 43 45 46 46 46 47 48 48 49 49 49 49 48 49 50 50 50 51 49 48
44 42 41 40 40 40 41 42 43 43 42 41 42 43 45 55 52 51 49 47 47 44 43 44 43 43 43 43 44 44 45 45 46 48 49 48 49 50 51 51 51 51 52 52 52 53 53 53 52 52 51 50 48 47 47 45 46 47 47 48 46 48 47 48 48 48 48 49 49 49 47 46 48 47
41 40 40 41 42 43 44 47 47 48 47 42 43 43 48 53 51 50 50 49 47 46 44 45 45 44 44 43 43 43 44 47 45 46 47 48 48 49 51 51 50 50 50 50 51 51 52 52 52 52 51 50 51 49 48 48 46 45 46 48 47 46 47 47 47 46 47 47 47 47 47 47 47 46
42 43 44 44 42 42 42 43 43 46 45 47 51 49 50 48 49 48 49 50 50 48 47 47 47 45 43 43 45 44 44 44 44 45 46 46 44 47 46 49 47 48 48 49 49 49 49 50 51 52 50 47 47 46 47 48 46 45 44 45 47 45 46 46 47 46 44 45 46 48 47 48 48 47
45 47 45 46 47 48 49 49 50 51 50 49 49 50 47 47 50 53 55 53 50 50 49 46 44 43 43 43 41 42 42 43 44 43 45 45 42 43 45 46 44 44 46 47 48 48 48 48 48 48 49 49 46 44 45 45 44 44 42 42 43 42 44 44 43 45 43 44 46 45 45 45 46 46
51 50 49 47 49 49 48 48 49 49 49 49 49 50 49 49 50 49 49 50 50 48 46 45 43 42 42 41 41 41 42 42 41 41 44 44 44 43 44 42 40 41 43 43 44 45 46 47 48 47 45 44 44 47 47 43 41 41 42 40 42 42 40 41 42 42 43 44 41 42 43 44 44 44
49 46 46 46 48 49 49 48 48 49 48 49 49 49 47 50 50 48 48 50 49 48 45 42 44 46 46 44 42 42 41 40 40 40 42 42 43 42 41 41 38 38 39 39 40 41 43 45 46 47 47 45 45 44 45 44 39 40 39 39 41 40 40 41 40 40 41 39 39 41 40 41 42 42
49 46 46 47 47 47 49 48 48 48 48 48 48 49 49 50 50 48 50 49 47 47 45 45 46 46 47 46 45 45 42 42 40 40 39 41 42 41 40 39 38 37 38 38 38 36 37 40 44 45 44 44 45 45 43 41 41 40 40 39 37 39 40 40 39 40 40 40 39 37 38 39 41 41
43 44 46 46 47 46 46 48 48 48 48 47 48 48 48 49 49 51 50 48 49 47 47 46 44 46 45 44 42 42 41 40 40 40 40 41 40 38 38 38 37 36 36 37 37 36 35 36 39 41 39 36 34 34 41 43 40 37 42 39 37 37 38 37 38 38 39 39 38 37 35 36 38 41
40 42 43 43 44 44 46 48 48 49 48 47 47 47 49 48 47 48 48 46 49 47 47 45 44 44 42 39 39 37 38 42 41 40 39 37 39 38 38 35 37 36 38 35 35 36 36 35 36 39 37 36 35 33 38 36 40 42 40 39 38 37 37 35 38 38 36 36 36 37 38 38 38 38
42 40 39 39 41 41 44 46 46 47 47 47 48 48 48 47 47 46 47 49 47 44 41 42 40 39 39 39 40 40 39 39 39 39 38 39 39 38 37 36 35 36 35 34 36 35 35 36 35 34 37 35 32 30 34 37 31 39 40 39 40 39 35 35 34 35 37 35 37 36 34 37 38 38
41 40 39 39 39 40 41 43 43 42 41 43 45 46 46 45 46 45 46 45 43 42 41 41 40 39 40 40 39 39 39 37 38 37 39 38 39 38 37 37 37 35 37 35 35 37 37 36 34 32 33 33 33 35 35 31 35 38 37 42 38 36 35 35 35 34 34 35 35 35 34 35 36 38
39 40 41 41 41 40 42 43 42 42 43 43 44 44 44 41 42 44 41 40 42 42 41 40 40 40 38 39 38 37 38 39 38 38 38 38 38 38 37 35 37 36 36 35 36 35 36 35 35 35 33 34 34 33 30 32 31 27 31 39 42 40 38 33 36 37 35 34 34 33 34 32 36 31
38 38 39 40 40 40 41 41 42 42 42 42 44 43 44 43 43 42 41 41 39 41 38 40 41 41 40 39 40 41 37 35 36 37 37 37 36 36 36 34 33 35 36 34 34 36 36 38 37 35 34 32 33 32 31 31 34 29 28 31 38 39 41 42 40 37 39 35 34 34 34 33 32 28
38 40 40 40 41 41 41 43 43 44 44 43 44 44 44 44 43 41 40 39 41 41 41 41 40 38 38 38 38 37 38 36 35 35 37 38 35 34 34 34 35 33 36 34 38 37 38 36 35 35 36 34 29 26 27 27 30 29 26 25 28 35 38 40 40 42 39 35 34 33 29 27 29 24
39 40 41 41 40 40 41 44 45 46 45 44 42 44 42 41 39 41 41 41 40 40 40 38 37 38 37 36 36 37 37 35 36 37 38 38 38 36 34 35 35 34 36 37 35 36 36 36 36 36 33 31 27 29 31 28 25 25 23 26 30 28 31 37 37 40 40 41 41 38 32 33 28 29
41 41 41 41 41 41 42 44 45 44 46 45 42 42 42 41 41 42 41 40 38 38 39 36 35 35 36 37 35 36 36 36 37 37 37 36 36 37 35 34 33 34 34 33 34 35 34 34 34 33 32 32 28 28 30 27 28 26 27 26 25 26 28 29 31 37 39 39 39 39 40 39 39 44
41 43 42 41 41 41 43 44 45 44 44 43 42 42 40 42 40 41 40 39 39 39 38 37 36 35 35 35 37 36 35 37 36 35 35 34 34 35 35 35 33 34 33 33 34 33 33 33 33 30 29 28 29 33 30 30 30 28 27 26 28 26 25 27 31 31 29 29 35 38 38 39 39 40
MSLP
1016.35 1016.19 1016.03 1015.99 1015.83 1015.67 1015.55 1015.55 1015.55 1015.59 1015.71 1015.83 1015.91 1016.03 1016.27 1016.39 1016.67 1016.83 1016.79 1016.31 1015.99 1015.27 1015.11 1015.35 1014.51 1014.19 1014.23 1014.27 1014.27 1014.47 1014.51 1014.39 1014.55 1014.83 1014.99 1015.11 1015.15 1015.19 1015.35 1015.51 1015.67 1015.83 1015.91 1016.03 1016.19 1016.35 1016.55 1016.79 1017.03 1017.27 1017.55 1017.83 1018.07 1018.31 1018.55 1018.75 1018.99 1019.23 1019.43 1019.63 1019.75 1019.91 1020.11 1020.27 1020.39 1020.51 1020.67 1020.75 1020.83 1020.95 1021.07 1021.23 1021.39 1021.47
1016.23 1016.11 1016.03 1015.91 1015.79 1015.55 1015.51 1015.47 1015.43 1015.43 1015.47 1015.59 1015.67 1015.75 1015.79 1015.87 1016.15 1016.19 1016.47 1016.07 1015.47 1015.15 1014.75 1014.71 1014.51 1014.11 1014.07 1013.99 1014.11 1014.15 1014.19 1014.15 1014.35 1014.51 1014.67 1014.79 1014.79 1014.83 1014.99 1015.11 1015.27 1015.47 1015.63 1015.79 1015.91 1016.03 1016.15 1016.39 1016.63 1016.91 1017.19 1017.43 1017.67 1017.87 1018.11 1018.35 1018.59 1018.83 1019.03 1019.27 1019.51 1019.71 1019.87 1020.03 1020.15 1020.27 1020.35 1020.47 1020.55 1020.67 1020.79 1020.91 1021.07 1021.19
1016.19 1016.07 1016.03 1015.91 1015.79 1015.51 1015.43 1015.35 1015.31 1015.27 1015.27 1015.31 1015.35 1015.43 1015.51 1015.55 1015.59 1015.71 1015.87 1016.11 1015.11 1014.87 1014.91 1014.39 1014.03 1013.99 1013.79 1013.79 1013.91 1013.99 1014.03 1014.03 1014.15 1014.27 1014.39 1014.43 1014.39 1014.51 1014.63 1014.75 1014.91 1015.07 1015.27 1015.47 1015.63 1015.79 1015.91 1016.07 1016.27 1016.55 1016.83 1017.11 1017.35 1017.55 1017.79 1017.99 1018.19 1018.43 1018.71 1018.91 1019.11 1019.35 1019.59 1019.75 1019.91 1020.03 1020.11 1020.23 1020.31 1020.39 1020.51 1020.67 1020.79 1020.91
1016.11 1015.99 1015.99 1015.87 1015.75 1015.55 1015.35 1015.27 1015.19 1015.15 1015.11 1015.11 1015.15 1015.19 1015.23 1015.23 1015.23 1015.31 1015.43 1015.51 1015.23 1014.67 1014.59 1014.31 1014.03 1013.75 1013.67 1013.75 1013.91 1013.91 1013.91 1013.87 1014.03 1014.11 1014.19 1014.15 1014.23 1014.39 1014.43 1014.51 1014.63 1014.75 1014.91 1015.11 1015.31 1015.51 1015.71 1015.87 1016.03 1016.23 1016.51 1016.83 1017.11 1017.35 1017.55 1017.75 1017.99 1018.19 1018.39 1018.59 1018.75 1018.95 1019.19 1019.39 1019.59 1019.71 1019.87 1019.99 1020.11 1020.19 1020.27 1020.39 1020.51 1020.63
1016.03 1015.91 1015.87 1015.71 1015.55 1015.35 1015.31 1015.19 1015.11 1015.03 1014.99 1014.95 1014.87 1014.87 1014.91 1014.95 1014.91 1015.03 1015.11 1015.23 1015.07 1014.59 1014.23 1014.27 1014.15 1013.83 1013.75 1013.87 1013.79 1013.91 1013.87 1013.87 1013.87 1013.87 1013.83 1013.91 1014.07 1014.15 1014.19 1014.23 1014.35 1014.43 1014.59 1014.75 1014.99 1015.23 1015.47 1015.71 1015.87 1016.03 1016.19 1016.43 1016.71 1016.99 1017.23 1017.47 1017.75 1017.95 1018.11 1018.27 1018.43 1018.63 1018.87 1019.11 1019.31 1019.47 1019.59 1019.71 1019.79 1019.91 1020.03 1020.11 1020.19 1020.31
1015.99 1015.87 1015.71 1015.51 1015.39 1015.23 1015.23 1015.07 1014.95 1014.87 1014.83 1014.79 1014.79 1014.67 1014.67 1014.67 1014.71 1014.71 1014.91 1014.83 1014.91 1014.79 1014.35 1014.31 1014.07 1014.03 1013.71 1013.91 1013.51 1013.75 1013.79 1013.79 1013.79 1013.91 1013.79 1013.75 1013.83 1013.95 1014.03 1014.15 1014.11 1014.19 1014.35 1014.55 1014.71 1014.95 1015.15 1015.39 1015.59 1015.71 1015.83 1016.03 1016.35 1016.63 1016.91 1017.19 1017.43 1017.63 1017.83 1018.03 1018.19 1018.43 1018.63 1018.87 1019.07 1019.19 1019.27 1019.39 1019.47 1019.55 1019.67 1019.79 1019.87 1019.95
1015.99 1015.79 1015.63 1015.43 1015.27 1015.11 1015.07 1014.91 1014.79 1014.67 1014.67 1014.59 1014.59 1014.51 1014.43 1014.47 1014.43 1014.39 1014.43 1014.59 1014.71 1014.75 1014.51 1014.19 1014.27 1014.31 1013.99 1013.83 1013.63 1013.51 1013.43 1013.43 1013.59 1013.79 1013.75 1013.71 1013.75 1013.79 1013.83 1013.87 1013.83 1013.91 1014.03 1014.23 1014.51 1014.71 1014.87 1015.07 1015.23 1015.43 1015.59 1015.83 1016.11 1016.39 1016.63 1016.87 1017.11 1017.31 1017.51 1017.71 1017.91 1018.15 1018.35 1018.59 1018.75 1018.83 1018.91 1018.99 1019.11 1019.23 1019.31 1019.43 1019.55 1019.63
1016.07 1015.79 1015.59 1015.43 1015.27 1015.07 1014.99 1014.79 1014.71 1014.55 1014.47 1014.43 1014.35 1014.27 1014.19 1014.23 1014.23 1014.19 1014.19 1014.19 1014.35 1014.35 1014.51 1014.15 1014.15 1013.95 1014.35 1013.99 1013.63 1013.43 1013.39 1013.51 1013.63 1013.59 1013.59 1013.59 1013.67 1013.63 1013.63 1013.63 1013.59 1013.59 1013.79 1013.95 1014.19 1014.47 1014.71 1014.91 1015.03 1015.19 1015.39 1015.63 1015.91 1016.15 1016.39 1016.59 1016.83 1017.03 1017.23 1017.43 1017.63 1017.87 1018.11 1018.35 1018.47 1018.55 1018.59 1018.71 1018.83 1018.99 1019.07 1019.19 1019.27 1019.35
1016.07 1015.75 1015.59 1015.43 1015.27 1015.03 1014.91 1014.67 1014.59 1014.47 1014.43 1014.31 1014.27 1014.19 1014.11 1014.03 1013.95 1013.99 1014.03 1014.07 1014.07 1014.15 1014.19 1014.03 1013.79 1013.75 1013.83 1014.03 1014.07 1013.63 1013.59 1013.67 1013.59 1013.47 1013.51 1013.47 1013.51 1013.55 1013.51 1013.55 1013.43 1013.51 1013.71 1013.83 1013.95 1014.15 1014.43 1014.67 1014.87 1015.07 1015.27 1015.47 1015.71 1015.91 1016.15 1016.35 1016.59 1016.87 1017.07 1017.23 1017.43 1017.67 1017.91 1018.07 1018.15 1018.23 1018.35 1018.51 1018.67 1018.79 1018.83 1018.87 1018.87 1018.87
1016.07 1015.79 1015.51 1015.31 1015.19 1014.95 1014.87 1014.63 1014.43 1014.31 1014.23 1014.15 1014.15 1014.03 1013.91 1013.79 1013.75 1013.79 1013.79 1013.83 1013.87 1013.95 1013.99 1013.95 1013.87 1013.79 1013.91 1013.95 1014.07 1013.79 1013.55 1013.63 1013.75 1013.59 1013.43 1013.35 1013.31 1013.47 1013.59 1013.51 1013.43 1013.47 1013.63 1013.79 1013.91 1014.03 1014.23 1014.43 1014.63 1014.87 1015.11 1015.31 1015.47 1015.67 1015.95 1016.19 1016.43 1016.67 1016.83 1017.03 1017.23 1017.43 1017.59 1017.67 1017.79 1017.95 1018.15 1018.31 1018.39 1018.47 1018.51 1018.55 1018.67 1018.79
1015.99 1015.67 1015.39 1015.15 1014.99 1014.75 1014.59 1014.51 1014.35 1014.19 1014.11 1014.03 1013.91 1013.79 1013.71 1013.55 1013.51 1013.51 1013.55 1013.59 1013.75 1013.91 1013.91 1013.83 1013.71 1013.75 1013.63 1013.71 1013.87 1013.63 1013.67 1013.63 1013.59 1013.79 1013.71 1013.63 1013.35 1013.35 1013.43 1013.55 1013.47 1013.47 1013.59 1013.67 1013.67 1013.71 1013.83 1013.99 1014.35 1014.63 1014.91 1015.15 1015.39 1015.59 1015.83 1016.07 1016.23 1016.39 1016.55 1016.79 1017.03 1017.19 1017.31 1017.43 1017.63 1017.83 1017.95 1018.07 1018.19 1018.31 1018.31 1018.43 1018.55 1018.59
1015.87 1015.51 1015.19 1014.95 1014.71 1014.47 1014.31 1014.27 1014.15 1014.07 1014.03 1013.87 1013.71 1013.63 1013.59 1013.51 1013.51 1013.51 1013.47 1013.55 1013.63 1013.71 1013.75 1013.71 1013.63 1013.67 1013.71 1013.59 1013.51 1013.55 1013.67 1013.87 1013.75 1013.55 1013.59 1013.67 1013.55 1013.39 1013.27 1013.27 1013.43 1013.47 1013.55 1013.63 1013.75 1013.83 1013.95 1014.11 1014.31 1014.55 1014.87 1015.15 1015.31 1015.51 1015.75 1015.91 1016.03 1016.11 1016.27 1016.51 1016.75 1016.95 1017.11 1017.27 1017.43 1017.59 1017.71 1017.91 1018.03 1018.07 1018.11 1018.23 1018.35 1018.43
1015.59 1015.19 1014.91 1014.67 1014.43 1014.07 1013.79 1013.71 1013.83 1013.99 1013.99 1013.79 1013.63 1013.43 1013.39 1013.35 1013.39 1013.35 1013.35 1013.39 1013.47 1013.51 1013.51 1013.51 1013.47 1013.51 1013.59 1013.59 1013.59 1013.67 1013.79 1013.83 1013.47 1013.35 1013.47 1013.47 1013.35 1013.39 1013.43 1013.23 1013.11 1013.27 1013.51 1013.59 1013.75 1013.91 1013.95 1014.11 1014.35 1014.59 1014.83 1014.95 1015.19 1015.39 1015.55 1015.71 1015.83 1015.95 1016.11 1016.31 1016.51 1016.63 1016.79 1016.99 1017.19 1017.31 1017.47 1017.67 1017.79 1017.83 1017.87 1018.03 1018.15 1018.27
1015.39 1015.03 1014.75 1014.43 1014.03 1013.83 1013.71 1013.75 1014.11 1014.07 1013.95 1013.79 1013.63 1013.59 1013.51 1013.23 1013.15 1013.15 1013.23 1013.23 1013.23 1013.23 1013.27 1013.27 1013.27 1013.39 1013.51 1013.51 1013.47 1013.47 1013.39 1013.27 1013.27 1013.27 1013.27 1013.39 1013.23 1013.39 1013.39 1013.27 1013.11 1013.03 1013.31 1013.67 1013.83 1013.91 1013.95 1014.11 1014.43 1014.51 1014.63 1014.79 1014.91 1015.03 1015.31 1015.47 1015.63 1015.79 1016.03 1016.23 1016.39 1016.55 1016.71 1016.91 1017.03 1017.15 1017.35 1017.55 1017.67 1017.75 1017.91 1018.11 1018.23 1018.35
1015.39 1014.95 1014.67 1014.39 1014.11 1013.95 1013.91 1013.83 1013.95 1013.95 1013.99 1013.99 1013.91 1013.79 1013.63 1013.35 1013.11 1012.95 1013.07 1013.11 1013.07 1013.07 1013.07 1013.07 1013.15 1013.23 1013.31 1013.31 1013.31 1013.31 1013.23 1013.19 1013.19 1013.11 1013.07 1013.15 1013.23 1013.35 1013.43 1013.43 1013.11 1012.87 1012.99 1013.39 1013.71 1013.95 1013.95 1014.03 1014.55 1014.99 1015.19 1015.31 1015.31 1015.35 1015.43 1015.59 1015.71 1015.79 1015.95 1016.11 1016.27 1016.47 1016.67 1016.91 1017.11 1017.31 1017.55 1017.71 1017.87 1018.03 1018.15 1018.35 1018.43 1018.47
1015.31 1014.99 1014.67 1014.47 1014.23 1014.11 1013.95 1013.95 1014.03 1014.11 1014.15 1014.03 1013.91 1013.83 1013.75 1013.59 1013.51 1013.43 1013.19 1013.03 1013.07 1013.11 1013.07 1013.07 1013.07 1013.15 1013.27 1013.27 1013.23 1013.19 1013.15 1013.07 1013.03 1012.99 1013.03 1013.07 1013.11 1013.23 1013.11 1012.99 1013.03 1012.67 1012.67 1013.07 1013.63 1014.43 1014.67 1014.63 1014.95 1015.47 1015.87 1015.99 1015.99 1015.87 1015.75 1015.75 1015.83 1015.99 1016.15 1016.31 1016.43 1016.59 1016.79 1016.99 1017.19 1017.39 1017.55 1017.75 1017.87 1017.95 1018.03 1018.11 1018.27 1018.43
1015.27 1014.91 1014.63 1014.47 1014.35 1014.51 1014.27 1014.35 1014.19 1014.07 1014.31 1014.31 1014.23 1013.91 1013.71 1013.67 1013.63 1013.59 1013.51 1013.47 1013.27 1013.15 1013.11 1013.11 1013.19 1013.23 1013.27 1013.31 1013.23 1013.27 1013.31 1013.27 1013.07 1012.91 1012.87 1012.87 1012.91 1013.03 1013.23 1012.95 1012.83 1012.91 1012.75 1013.03 1013.71 1014.59 1015.23 1015.27 1015.51 1015.83 1016.31 1016.31 1016.27 1016.27 1016.27 1016.19 1016.27 1016.31 1016.47 1016.63 1016.79 1016.95 1017.07 1017.23 1017.35 1017.51 1017.71 1017.79 1017.87 1017.95 1018.11 1018.19 1018.19 1018.19
1015.07 1014.87 1014.75 1014.51 1014.43 1014.55 1014.63 1014.67 1014.39 1013.95 1014.03 1013.99 1014.11 1014.35 1014.15 1013.95 1013.79 1013.71 1013.67 1013.55 1013.43 1013.31 1013.19 1013.19 1013.31 1013.55 1013.63 1013.51 1013.43 1013.35 1013.43 1013.31 1013.03 1012.83 1012.67 1012.55 1012.71 1012.79 1012.67 1012.75 1013.07 1012.99 1013.11 1012.63 1013.47 1015.03 1015.71 1015.79 1015.87 1016.31 1016.75 1016.59 1016.51 1016.67 1016.75 1016.59 1016.55 1016.59 1016.75 1016.91 1017.11 1017.23 1017.31 1017.47 1017.63 1017.67 1017.71 1017.91 1018.03 1018.03 1017.99 1018.07 1018.03 1017.99
1015.11 1015.07 1014.95 1014.83 1014.71 1014.71 1014.79 1014.83 1014.67 1014.15 1013.95 1013.91 1014.19 1014.43 1014.39 1014.31 1014.11 1014.03 1013.91 1013.79 1013.75 1013.63 1013.63 1013.67 1013.71 1013.83 1013.87 1013.83 1013.79 1013.59 1013.47 1013.23 1012.87 1012.59 1012.43 1012.39 1012.55 1012.83 1013.07 1013.15 1013.19 1013.19 1013.31 1013.03 1012.67 1014.83 1016.03 1016.15 1016.19 1016.87 1017.07 1016.99 1016.95 1017.07 1017.19 1017.19 1016.95 1016.95 1017.11 1017.31 1017.51 1017.67 1017.83 1017.87 1017.91 1018.07 1018.11 1018.07 1018.07 1018.11 1018.07 1018.11 1018.11 1018.03
1015.31 1015.23 1015.15 1014.91 1014.83 1014.91 1014.79 1014.71 1014.71 1014.51 1014.15 1013.99 1014.15 1014.23 1014.39 1014.47 1014.43 1014.35 1014.43 1014.39 1014.15 1013.99 1013.99 1013.99 1014.03 1014.07 1014.11 1014.07 1013.91 1013.71 1013.47 1012.99 1012.51 1012.27 1012.39 1012.39 1012.59 1012.83 1013.03 1013.11 1013.39 1013.11 1013.23 1013.15 1013.15 1014.63 1016.07 1016.19 1016.27 1017.19 1017.27 1017.23 1017.31 1017.55 1017.59 1017.67 1017.55 1017.47 1017.47 1017.55 1017.71 1017.95 1018.11 1017.99 1017.95 1017.95 1018.03 1018.15 1018.23 1018.15 1018.15 1018.19 1018.23 1018.19
1015.31 1015.19 1015.15 1015.15 1015.07 1014.99 1014.75 1014.75 1014.67 1014.59 1014.35 1014.11 1014.27 1014.47 1014.59 1014.47 1014.47 1014.39 1014.39 1014.43 1014.39 1014.35 1014.27 1014.27 1014.23 1014.19 1014.15 1014.07 1013.87 1013.55 1013.39 1012.99 1012.55 1012.55 1012.67 1012.87 1012.87 1012.87 1013.11 1013.55 1013.67 1013.71 1013.55 1013.51 1013.67 1014.39 1016.03 1016.43 1016.31 1017.19 1017.59 1017.59 1017.71 1017.95 1018.07 1018.07 1018.03 1017.99 1017.99 1018.15 1018.27 1018.31 1018.27 1018.11 1018.03 1018.15 1018.23 1018.31 1018.31 1018.27 1018.35 1018.35 1018.43 1018.59
1015.35 1015.15 1015.03 1015.07 1015.03 1014.91 1014.91 1014.91 1014.63 1014.43 1014.31 1014.11 1014.27 1014.43 1014.47 1014.55 1014.51 1014.39 1014.35 1014.31 1014.31 1014.31 1014.31 1014.27 1014.19 1014.15 1014.11 1013.95 1013.71 1013.47 1013.27 1012.95 1012.71 1012.55 1012.75 1012.67 1012.75 1013.03 1013.07 1013.63 1014.35 1014.19 1013.83 1013.95 1013.91 1014.39 1016.07 1016.35 1016.35 1016.67 1017.55 1017.59 1018.11 1018.39 1018.47 1018.39 1018.27 1018.35 1018.31 1018.43 1018.51 1018.35 1018.19 1018.27 1018.35 1018.47 1018.55 1018.59 1018.63 1018.55 1018.47 1018.55 1018.71 1018.83
1015.35 1015.15 1015.07 1015.03 1015.03 1014.99 1014.91 1014.87 1014.59 1014.31 1014.11 1014.03 1014.23 1014.31 1014.39 1014.47 1014.43 1014.39 1014.31 1014.27 1014.31 1014.23 1014.23 1014.23 1014.19 1014.15 1014.11 1013.99 1013.79 1013.63 1013.47 1013.19 1013.07 1012.99 1012.83 1012.67 1012.63 1013.03 1013.35 1013.35 1013.67 1013.83 1013.87 1014.19 1013.99 1014.43 1016.51 1016.35 1016.43 1016.07 1016.55 1017.71 1018.39 1018.47 1018.59 1018.47 1018.51 1018.63 1018.67 1018.51 1018.51 1018.67 1018.71 1018.51 1018.47 1018.63 1018.75 1018.83 1018.63 1018.47 1018.55 1018.67 1018.75 1018.83
1015.15 1015.11 1015.03 1014.95 1014.91 1014.91 1014.79 1014.71 1014.55 1014.19 1014.11 1013.95 1013.99 1014.03 1014.15 1014.27 1014.39 1014.27 1014.27 1014.27 1014.31 1014.39 1014.43 1014.55 1014.55 1014.51 1014.43 1014.23 1013.99 1013.83 1013.71 1013.59 1013.47 1013.35 1013.19 1012.95 1012.91 1013.03 1013.15 1013.35 1013.07 1013.19 1014.07 1014.43 1014.31 1014.31 1015.75 1015.91 1016.11 1015.99 1015.99 1016.71 1018.11 1018.79 1018.51 1018.79 1018.87 1018.91 1018.83 1018.67 1018.75 1018.99 1018.87 1018.75 1018.87 1019.03 1019.03 1018.99 1018.95 1018.91 1018.99 1018.95 1018.95 1018.91
1015.07 1015.03 1014.95 1014.95 1014.95 1014.87 1014.75 1014.59 1014.43 1014.19 1013.99 1013.95 1013.83 1013.95 1013.95 1014.07 1014.07 1014.11 1014.23 1014.31 1014.35 1014.51 1014.55 1014.59 1014.63 1014.59 1014.51 1014.39 1014.27 1014.19 1014.15 1014.15 1013.99 1013.79 1013.71 1013.59 1013.47 1013.51 1013.83 1013.99 1013.87 1014.19 1014.43 1014.47 1014.43 1014.19 1015.31 1015.67 1015.99 1016.15 1016.63 1016.95 1017.95 1018.47 1018.75 1018.95 1019.27 1019.27 1018.95 1018.63 1018.75 1018.91 1018.95 1018.95 1019.15 1019.23 1019.23 1019.19 1019.27 1019.27 1019.19 1019.07 1019.07 1019.07
1015.11 1014.99 1014.95 1014.87 1014.99 1014.95 1014.71 1014.51 1014.23 1014.07 1013.87 1013.91 1013.95 1013.87 1013.91 1014.07 1014.11 1014.15 1014.23 1014.35 1014.51 1014.63 1014.71 1014.75 1014.71 1014.71 1014.63 1014.59 1014.59 1014.59 1014.55 1014.51 1014.39 1014.27 1014.19 1014.11 1013.95 1013.95 1013.95 1013.99 1013.95 1013.91 1014.35 1014.51 1014.51 1014.39 1014.71 1015.59 1015.83 1016.23 1016.83 1017.15 1018.47 1018.39 1018.71 1019.03 1019.07 1019.07 1018.87 1018.83 1018.95 1019.07 1019.11 1019.15 1019.23 1019.27 1019.31 1019.31 1019.31 1019.31 1019.27 1019.23 1019.19 1019.15
1014.79 1014.91 1015.07 1015.15 1015.07 1014.95 1014.75 1014.59 1014.27 1013.99 1013.83 1013.59 1013.67 1013.91 1014.11 1014.19 1014.31 1014.31 1014.47 1014.63 1014.75 1014.87 1014.95 1014.95 1014.87 1014.95 1014.87 1014.79 1014.87 1014.87 1014.83 1014.83 1014.67 1014.63 1014.59 1014.55 1014.39 1014.39 1014.39 1014.35 1014.39 1014.55 1014.75 1014.67 1014.59 1014.59 1014.63 1015.35 1015.75 1015.87 1016.87 1017.43 1017.87 1018.51 1018.55 1018.75 1018.95 1018.99 1019.07 1019.23 1019.39 1019.47 1019.47 1019.39 1019.31 1019.35 1019.35 1019.31 1019.31 1019.15 1019.03 1019.11 1019.19 1019.27
1015.03 1015.15 1015.23 1015.27 1015.19 1014.99 1014.75 1014.63 1014.43 1014.15 1013.91 1013.79 1013.83 1013.79 1014.19 1014.35 1014.47 1014.63 1014.79 1014.87 1014.95 1015.07 1015.07 1015.03 1015.03 1015.07 1015.19 1015.07 1015.07 1015.11 1015.19 1015.15 1015.03 1014.99 1014.95 1014.87 1014.75 1014.71 1014.79 1014.79 1014.79 1014.87 1014.91 1014.91 1014.87 1014.79 1014.91 1015.39 1016.03 1016.35 1016.43 1017.11 1017.63 1018.03 1018.59 1018.83 1018.83 1018.99 1019.31 1019.63 1019.63 1019.59 1019.55 1019.47 1019.39 1019.39 1019.43 1019.39 1019.23 1019.15 1018.91 1019.03 1019.39 1019.39
1015.27 1015.35 1015.43 1015.35 1015.23 1015.03 1014.79 1014.55 1014.47 1014.35 1014.39 1014.27 1014.27 1014.15 1014.39 1014.47 1014.67 1014.83 1014.99 1015.07 1015.07 1015.15 1015.23 1015.27 1015.31 1015.31 1015.35 1015.39 1015.43 1015.47 1015.39 1015.31 1015.19 1015.07 1015.15 1015.11 1015.07 1014.99 1014.91 1015.03 1015.15 1015.27 1015.35 1015.39 1015.35 1015.31 1015.39 1015.55 1016.23 1016.67 1016.95 1017.11 1017.35 1018.03 1018.07 1018.59 1018.87 1019.15 1019.27 1019.27 1019.47 1019.71 1019.71 1019.71 1019.63 1019.59 1019.55 1019.55 1019.55 1019.43 1019.47 1019.55 1019.47 1019.51
1015.35 1015.39 1015.39 1015.35 1015.15 1014.95 1014.79 1014.55 1014.43 1014.47 1014.55 1014.47 1014.39 1014.43 1014.51 1014.59 1014.71 1014.87 1015.03 1015.11 1015.11 1015.27 1015.43 1015.43 1015.43 1015.55 1015.55 1015.55 1015.63 1015.63 1015.59 1015.47 1015.55 1015.43 1015.47 1015.39 1015.47 1015.39 1015.23 1015.23 1015.67 1015.83 1015.87 1015.83 1015.83 1015.83 1015.83 1015.99 1016.27 1016.55 1016.99 1017.35 1017.47 1017.91 1018.19 1018.39 1018.95 1019.19 1019.15 1019.15 1019.47 1019.51 1019.71 1019.79 1019.75 1019.83 1019.79 1019.83 1019.87 1019.87 1019.83 1019.75 1019.79 1019.59
1015.27 1015.27 1015.23 1015.11 1015.03 1014.95 1014.79 1014.63 1014.55 1014.43 1014.51 1014.59 1014.55 1014.63 1014.75 1014.75 1014.75 1014.87 1014.91 1015.03 1015.11 1015.35 1015.47 1015.55 1015.71 1015.83 1015.79 1015.79 1015.67 1015.75 1015.75 1015.83 1015.95 1015.91 1015.83 1015.83 1016.07 1015.99 1015.95 1015.95 1016.43 1016.55 1016.67 1016.59 1016.51 1016.47 1016.43 1016.47 1016.59 1016.55 1017.03 1017.79 1018.07 1018.23 1018.39 1018.47 1018.99 1019.31 1019.59 1019.55 1019.35 1019.59 1020.11 1019.95 1019.91 1020.07 1020.23 1020.15 1020.07 1019.99 1020.03 1019.99 1019.95 1020.03
1015.15 1015.15 1015.03 1014.95 1014.87 1014.71 1014.51 1014.35 1014.35 1014.31 1014.35 1014.39 1014.55 1014.67 1014.79 1014.83 1014.83 1014.87 1014.99 1015.15 1015.31 1015.47 1015.63 1015.79 1015.99 1015.99 1015.91 1015.79 1015.95 1015.99 1015.99 1016.11 1016.15 1016.15 1016.03 1016.11 1016.27 1016.35 1016.11 1016.31 1017.07 1017.15 1017.11 1017.15 1017.11 1017.11 1016.99 1017.07 1017.11 1017.23 1017.31 1017.55 1018.07 1018.83 1018.87 1019.07 1019.43 1019.67 1019.95 1020.03 1020.15 1020.39 1020.39 1020.27 1020.19 1020.27 1020.47 1020.27 1020.27 1020.55 1020.67 1020.67 1020.63 1020.63
1014.99 1014.99 1014.83 1014.75 1014.63 1014.63 1014.67 1014.51 1014.43 1014.47 1014.51 1014.55 1014.63 1014.67 1014.75 1014.91 1014.95 1015.03 1015.19 1015.35 1015.43 1015.59 1015.75 1015.83 1015.91 1015.99 1016.07 1016.15 1016.23 1016.19 1016.23 1016.31 1016.39 1016.51 1016.47 1016.67 1016.67 1016.99 1016.91 1017.31 1017.63 1017.51 1017.51 1017.71 1017.75 1017.75 1017.75 1017.75 1017.75 1017.87 1018.15 1018.39 1018.47 1018.39 1018.59 1019.35 1019.99 1019.95 1019.87 1020.19 1020.15 1020.43 1020.67 1020.71 1020.63 1020.59 1020.43 1020.43 1020.95 1020.95 1020.91 1021.03 1021.07 1021.03
1014.99 1014.91 1014.79 1014.75 1014.75 1014.75 1014.75 1014.75 1014.71 1014.55 1014.55 1014.59 1014.63 1014.75 1014.83 1014.91 1014.95 1015.15 1015.31 1015.35 1015.51 1015.71 1015.83 1015.95 1015.91 1016.03 1016.19 1016.39 1016.47 1016.43 1016.51 1016.75 1016.83 1016.87 1016.67 1016.95 1016.99 1017.07 1017.43 1017.67 1018.15 1018.27 1018.03 1018.07 1018.07 1018.15 1018.11 1018.15 1018.19 1018.39 1018.55 1018.83 1019.03 1019.15 1019.07 1019.35 1020.07 1020.19 1020.27 1020.19 1020.19 1020.47 1020.87 1020.87 1020.95 1020.95 1020.87 1020.95 1020.87 1020.95 1021.23 1021.31 1021.35 1021.31
1014.91 1014.91 1014.83 1014.79 1014.75 1014.63 1014.67 1014.71 1014.83 1014.91 1014.87 1014.83 1014.87 1014.91 1014.91 1014.91 1015.03 1015.23 1015.31 1015.43 1015.63 1015.75 1015.91 1015.95 1015.95 1016.15 1016.19 1016.43 1016.63 1016.67 1016.83 1016.91 1017.15 1017.31 1017.47 1017.39 1017.51 1017.71 1017.87 1017.99 1018.27 1018.27 1018.19 1018.19 1018.31 1018.51 1018.47 1018.39 1018.27 1018.47 1018.79 1018.87 1019.03 1019.63 1019.87 1019.91 1019.99 1020.35 1020.27 1020.39 1020.43 1020.47 1020.79 1020.95 1020.91 1020.99 1020.99 1021.07 1021.03 1021.15 1021.51 1021.51 1021.43 1021.51
1014.99 1014.91 1014.83 1014.67 1014.55 1014.83 1014.91 1014.63 1014.75 1015.03 1014.95 1014.95 1014.87 1014.79 1014.87 1014.99 1015.07 1015.19 1015.27 1015.47 1015.55 1015.71 1015.83 1015.91 1016.07 1016.15 1016.27 1016.51 1016.71 1016.95 1017.11 1017.19 1017.35 1017.47 1017.63 1017.79 1018.07 1018.39 1018.47 1018.67 1018.79 1018.91 1018.91 1018.79 1018.75 1018.87 1018.87 1018.83 1018.59 1018.51 1018.99 1019.39 1019.59 1019.79 1019.95 1020.23 1020.15 1020.07 1019.99 1020.35 1020.51 1020.59 1020.87 1021.07 1021.19 1021.19 1021.11 1021.15 1021.31 1021.27 1021.39 1021.55 1021.63 1021.67
1014.91 1014.87 1014.83 1014.75 1014.67 1014.87 1014.75 1014.67 1014.71 1014.71 1014.71 1014.71 1014.63 1014.47 1014.59 1014.91 1015.07 1015.11 1015.27 1015.51 1015.55 1015.67 1015.79 1015.99 1016.07 1016.23 1016.51 1016.83 1016.99 1017.15 1017.23 1017.19 1017.51 1017.75 1018.03 1018.35 1018.51 1018.63 1018.75 1019.03 1019.07 1019.11 1019.11 1019.43 1019.39 1019.15 1019.07 1019.07 1019.35 1018.87 1019.27 1019.59 1019.83 1020.15 1020.31 1020.23 1020.47 1020.59 1020.31 1020.35 1020.71 1020.87 1020.83 1020.99 1020.99 1021.03 1021.43 1021.43 1021.39 1021.47 1021.51 1021.55 1021.63 1021.75
1014.79 1014.83 1014.91 1014.87 1014.83 1014.79 1014.99 1014.91 1014.79 1014.51 1014.47 1014.51 1014.51 1014.63 1014.67 1014.79 1015.07 1015.27 1015.55 1015.55 1015.67 1015.87 1016.03 1016.07 1016.43 1016.59 1016.71 1016.83 1016.91 1017.27 1017.51 1017.67 1017.79 1018.03 1018.31 1018.43 1018.59 1018.91 1018.99 1019.15 1019.27 1019.31 1019.51 1019.67 1019.63 1019.63 1019.67 1019.47 1019.39 1019.47 1019.07 1019.31 1019.99 1020.27 1020.35 1020.47 1020.47 1020.55 1020.91 1020.63 1020.63 1020.91 1021.03 1020.91 1021.03 1021.19 1021.19 1021.47 1021.43 1021.71 1021.75 1021.63 1021.67 1021.79
1014.83 1014.83 1014.91 1014.83 1014.83 1014.87 1014.71 1014.67 1014.63 1014.39 1014.63 1014.71 1014.71 1014.71 1014.95 1015.07 1015.23 1015.43 1015.39 1015.43 1015.71 1015.87 1016.15 1016.23 1016.43 1016.59 1016.67 1016.95 1017.03 1017.15 1017.43 1017.63 1017.83 1018.15 1018.43 1018.67 1018.83 1019.11 1019.35 1019.35 1019.43 1019.63 1019.39 1019.47 1019.67 1019.71 1019.55 1019.43 1019.51 1019.47 1019.47 1019.67 1019.83 1020.03 1020.31 1020.47 1020.95 1021.03 1021.03 1021.03 1020.83 1020.79 1021.03 1020.99 1021.07 1021.15 1021.15 1021.23 1021.47 1021.87 1021.91 1022.03 1022.03 1022.07
1014.71 1014.79 1014.63 1014.51 1014.47 1014.79 1014.63 1014.63 1014.51 1014.47 1014.59 1014.67 1014.67 1014.83 1014.91 1015.03 1015.23 1015.35 1015.51 1015.67 1015.83 1016.07 1016.11 1016.31 1016.67 1016.91 1017.03 1017.19 1017.35 1017.55 1017.59 1017.55 1017.83 1018.23 1018.47 1018.79 1019.03 1019.15 1019.31 1019.43 1019.47 1019.59 1019.55 1019.59 1019.59 1019.75 1019.75 1019.83 1019.79 1019.83 1019.87 1019.99 1020.07 1020.35 1020.51 1020.63 1020.91 1021.31 1021.15 1021.03 1021.03 1020.83 1020.87 1020.91 1020.95 1021.03 1020.99 1021.27 1021.51 1021.35 1021.15 1021.47 1021.15 1021.79
1014.39 1014.31 1014.27 1014.51 1014.35 1014.35 1014.43 1014.35 1014.39 1014.51 1014.51 1014.75 1014.59 1014.71 1014.79 1015.03 1015.23 1015.35 1015.47 1015.71 1015.91 1016.19 1016.47 1016.75 1016.79 1016.83 1017.07 1017.27 1017.27 1017.19 1017.55 1018.11 1018.35 1018.51 1018.71 1018.95 1019.15 1019.31 1019.47 1019.59 1019.75 1019.67 1019.43 1019.83 1019.87 1019.87 1019.99 1020.07 1020.23 1020.31 1020.23 1020.31 1020.63 1020.75 1020.43 1020.47 1020.55 1020.91 1021.03 1020.99 1021.03 1021.15 1021.15 1021.19 1021.11 1021.15 1021.15 1021.39 1021.43 1021.23 1021.31 1021.39 1021.67 1021.59
1014.11 1013.87 1013.87 1014.15 1014.27 1014.11 1014.19 1014.03 1014.39 1014.39 1014.51 1014.59 1014.51 1014.59 1014.75 1014.87 1014.91 1015.27 1015.59 1015.87 1016.03 1016.23 1016.55 1016.75 1016.87 1016.99 1017.23 1017.39 1017.51 1017.47 1017.51 1018.03 1018.43 1018.67 1018.79 1018.99 1019.43 1019.67 1019.67 1019.47 1019.51 1019.87 1019.39 1019.59 1019.67 1019.87 1020.19 1020.47 1020.55 1020.27 1020.15 1020.11 1020.15 1020.19 1020.83 1021.07 1020.95 1021.07 1021.19 1021.31 1021.27 1021.39 1021.51 1021.51 1021.43 1021.39 1021.35 1021.31 1021.27 1021.39 1021.47 1021.95 1022.23 1021.83
1013.99 1013.75 1013.55 1013.67 1013.99 1013.87 1014.15 1014.07 1014.07 1014.15 1014.23 1014.39 1014.43 1014.59 1014.79 1014.99 1015.27 1015.43 1015.67 1015.87 1016.03 1016.23 1016.47 1016.75 1016.95 1017.07 1017.27 1017.47 1017.47 1017.43 1017.67 1018.07 1018.35 1018.59 1018.79 1018.95 1019.11 1019.39 1019.51 1019.63 1019.71 1019.83 1019.67 1019.83 1020.07 1020.19 1020.31 1020.39 1020.07 1020.11 1020.35 1020.47 1020.75 1020.75 1020.87 1021.23 1021.43 1021.47 1021.35 1021.23 1021.19 1021.43 1021.31 1021.43 1021.55 1021.51 1021.51 1021.43 1021.43 1021.47 1021.55 1021.63 1021.87 1021.99
1013.71 1013.51 1013.43 1013.47 1013.59 1013.55 1013.87 1014.15 1013.75 1013.95 1013.95 1014.15 1014.35 1014.63 1014.75 1014.91 1015.11 1015.31 1015.55 1015.75 1015.99 1016.15 1016.51 1016.75 1017.03 1017.15 1017.27 1017.51 1017.67 1017.67 1017.59 1017.91 1018.27 1018.43 1018.67 1018.83 1019.03 1019.27 1019.51 1019.91 1020.07 1020.07 1019.99 1019.99 1020.15 1020.31 1020.39 1020.23 1020.23 1020.19 1020.27 1020.51 1020.75 1020.79 1020.87 1021.15 1021.07 1021.27 1021.43 1021.59 1021.67 1021.51 1021.27 1021.51 1021.47 1021.39 1021.51 1021.63 1021.67 1021.71 1021.71 1021.75 1021.71 1021.83
1013.39 1013.27 1013.15 1013.27 1013.35 1013.47 1013.63 1013.95 1013.63 1013.71 1013.87 1014.11 1014.39 1014.55 1014.79 1014.87 1014.99 1015.31 1015.59 1015.75 1015.95 1016.23 1016.47 1016.67 1016.95 1017.15 1017.31 1017.51 1017.43 1017.47 1017.87 1018.11 1018.19 1018.39 1018.67 1018.95 1019.15 1019.39 1019.63 1019.79 1019.99 1020.03 1019.99 1020.07 1020.03 1020.19 1020.31 1020.27 1020.47 1020.51 1020.59 1020.87 1020.99 1020.91 1021.27 1021.39 1021.39 1021.47 1021.63 1021.71 1021.39 1021.51 1021.59 1021.67 1021.43 1021.51 1021.51 1021.59 1021.67 1021.79 1021.79 1021.79 1021.79 1021.83
Wind_Speed
5 5 5 5 5 5 4 4 5 5 5 6 6 6 7 6 8 6 5 5 5 3 6 4 4 8 7 7 7 8 8 10 11 9 10 10 9 12 17 19 19 20 20 21 22 24 23 22 21 20 19 19 20 20 18 18 18 19 20 20 20 18 17 16 15 15 16 17 19 17 15 15 15 14
5 4 4 4 6 4 4 5 5 5 6 6 6 6 6 7 8 6 6 6 4 3 3 5 4 3 7 7 7 7 8 10 11 8 9 9 9 14 16 18 19 20 20 20 20 22 23 23 22 21 21 21 22 23 22 21 20 19 19 19 18 16 15 15 16 16 16 17 17 16 14 14 14 14
5 4 4 4 5 5 4 5 5 5 5 5 6 6 6 7 7 7 7 7 4 4 4 5 5 4 5 5 5 5 6 8 10 8 8 9 12 15 13 17 18 19 19 19 20 20 21 22 21 21 21 21 22 22 21 20 20 18 16 17 16 16 15 15 17 16 16 16 17 16 15 14 14 13
6 4 4 5 5 5 4 4 4 5 5 5 6 6 6 7 7 7 6 7 8 4 4 4 4 4 5 4 4 5 5 6 9 7 7 9 11 9 8 13 17 18 19 19 19 19 19 20 20 20 19 19 19 19 19 19 18 16 16 16 16 16 16 16 18 17 17 17 17 16 15 14 13 14
6 5 5 5 5 4 5 5 5 5 5 6 6 6 6 7 6 7 8 9 9 6 4 3 3 4 2 3 4 5 5 5 5 7 7 7 7 8 8 8 13 17 18 19 19 18 18 18 18 18 18 18 18 17 17 17 16 15 14 15 16 16 15 15 16 16 16 17 17 16 15 14 13 14
6 5 5 6 6 4 5 5 5 4 4 5 5 6 6 6 6 6 7 6 6 8 2 4 4 5 3 4 3 6 6 5 4 6 7 6 6 7 6 6 7 15 16 17 18 17 18 18 18 18 18 18 18 17 17 16 16 15 15 14 15 15 15 14 15 15 16 16 16 16 15 15 14 13
7 7 6 6 6 5 5 5 5 4 5 5 6 7 6 6 6 6 8 7 8 8 7 4 4 5 4 5 5 5 5 4 5 6 7 7 5 5 6 7 6 11 16 17 16 17 18 18 19 18 18 17 16 16 17 16 16 17 17 16 15 15 15 15 15 15 16 16 15 15 15 14 14 14
7 7 6 7 7 6 6 5 5 5 5 5 5 7 6 6 6 6 6 9 7 6 7 4 6 3 2 6 3 1 3 3 4 6 4 3 5 6 6 7 6 8 15 16 17 17 16 17 17 17 17 16 15 15 17 17 17 17 17 16 16 15 14 14 15 16 16 15 14 14 14 13 12 11
8 7 6 8 8 7 7 6 5 4 5 5 5 5 6 6 6 6 6 7 7 6 7 4 3 3 1 0 3 2 3 3 4 4 6 6 6 6 5 5 6 6 12 14 16 16 16 17 16 16 15 15 15 15 15 16 16 16 15 16 15 15 14 14 15 16 15 14 13 13 13 13 14 14
8 7 8 8 7 6 5 6 5 5 5 4 5 7 6 6 6 6 6 7 7 6 5 4 5 3 4 5 4 4 3 3 4 3 3 3 4 5 5 6 5 4 4 5 6 10 13 15 16 16 15 15 15 14 14 14 14 15 15 15 14 14 15 16 16 15 14 14 14 14 15 14 13 12
8 8 7 7 7 6 5 5 5 5 6 5 6 6 5 5 5 5 5 5 5 5 6 5 4 4 4 5 6 4 3 2 3 4 4 5 4 4 5 5 4 3 3 3 6 7 9 11 11 13 14 14 14 13 12 12 13 13 14 14 14 14 15 15 14 14 14 14 13 13 13 12 12 12
7 8 8 7 7 6 5 5 5 4 6 6 5 4 4 4 4 4 3 4 5 5 5 6 5 3 3 3 3 2 1 0 4 5 4 6 6 6 5 5 5 3 3 4 3 2 4 5 9 10 11 11 12 12 11 12 12 14 14 14 14 14 14 14 14 13 12 11 11 11 12 11 10 10
7 7 7 7 7 8 11 10 2 4 5 4 5 5 4 5 5 4 4 5 5 4 5 5 4 4 4 3 3 4 4 6 8 4 4 4 4 3 3 4 3 4 4 3 2 3 4 4 4 4 5 7 8 8 9 8 11 12 11 11 12 13 14 14 13 13 12 11 11 12 12 10 9 8
7 7 7 8 13 12 13 5 4 0 5 6 4 2 4 5 4 5 4 5 4 4 5 4 4 5 5 4 4 4 4 4 2 3 5 6 4 2 4 2 2 4 5 4 3 3 4 4 4 4 3 3 6 6 6 6 7 9 9 9 9 9 8 9 10 10 9 8 9 8 5 4 5 4
7 7 7 6 7 7 7 5 2 4 4 5 6 6 7 5 0 3 4 2 1 2 1 2 3 3 3 4 3 4 4 3 6 6 6 6 3 5 6 7 1 2 6 4 3 5 4 6 6 6 6 6 5 3 2 3 6 6 7 8 8 7 5 5 3 4 5 5 5 5 4 3 0 2
6 6 6 4 3 3 4 3 1 1 2 4 6 5 5 6 9 8 3 1 2 2 3 2 2 1 3 2 2 1 1 3 4 5 4 6 6 7 7 6 5 2 5 6 6 7 6 5 7 7 7 6 5 5 5 7 8 9 9 10 9 10 10 11 11 10 9 9 7 6 5 4 3 2
6 5 4 4 2 3 9 6 3 3 2 1 4 5 5 7 8 8 8 6 1 1 1 2 2 3 1 3 1 1 2 3 3 3 5 5 6 5 4 6 3 1 1 6 7 6 5 4 7 10 8 5 5 7 8 12 12 13 13 13 13 13 13 12 12 11 10 9 8 7 5 4 2 2
5 3 3 4 3 4 5 5 4 2 2 1 2 3 3 4 5 7 8 8 7 3 2 2 3 1 2 3 2 4 3 2 2 3 5 5 6 8 7 1 0 2 4 7 8 5 6 4 7 10 6 6 8 8 11 13 14 15 15 15 14 14 13 13 12 10 10 8 7 6 6 5 3 1
1 1 2 1 2 2 2 1 4 1 3 2 2 2 3 4 3 4 4 4 4 3 3 3 2 1 2 3 4 4 4 5 5 5 6 5 2 2 4 2 2 3 6 2 6 5 5 3 9 7 5 5 8 7 11 14 15 16 15 13 12 11 10 9 9 8 7 6 6 6 5 4 4 3
1 1 1 1 2 2 2 2 4 5 3 3 4 3 3 3 3 5 4 4 5 4 4 3 2 1 1 3 3 5 5 5 4 2 3 3 4 5 3 3 1 2 3 4 3 8 5 3 9 6 4 5 9 7 7 11 13 13 13 12 11 9 7 8 8 8 8 8 8 9 9 8 8 8
2 1 0 0 2 2 3 4 6 6 5 4 4 4 3 2 2 3 2 3 4 5 5 3 1 1 2 1 4 7 5 2 2 2 3 2 3 4 3 2 1 2 2 5 6 9 9 4 8 9 5 6 8 7 6 6 10 12 12 11 10 8 9 10 10 10 10 10 10 10 10 10 8 10
2 2 5 3 1 3 3 6 8 6 5 4 5 5 5 4 3 1 1 1 2 1 2 2 4 6 6 5 8 10 11 10 5 3 3 2 3 3 5 4 2 1 5 3 1 8 6 7 6 10 6 7 6 6 5 5 6 7 8 12 12 12 12 10 9 8 7 7 7 7 9 10 8 4
3 3 3 5 3 3 5 8 9 6 6 5 5 5 5 4 4 3 1 1 2 2 2 4 3 5 6 5 5 6 10 11 8 4 2 1 5 5 3 6 6 1 5 4 3 10 4 6 3 4 5 5 4 2 2 5 5 5 4 6 7 9 8 8 8 9 9 8 10 11 9 8 6 5
3 3 4 4 6 8 9 7 7 6 6 5 6 5 5 5 5 3 2 2 2 2 3 3 3 3 4 4 4 6 7 7 7 6 5 4 3 3 4 0 1 5 2 1 3 9 5 4 4 1 2 6 5 1 4 7 6 4 2 4 5 3 3 4 5 6 7 7 7 6 7 5 5 6
3 3 5 4 6 9 9 8 6 7 6 8 5 4 4 3 4 4 3 3 4 2 3 3 3 4 4 5 6 6 6 6 6 6 7 6 5 4 3 2 5 5 3 1 3 8 6 4 3 3 5 5 5 5 4 6 4 3 1 3 3 2 2 3 2 3 4 3 4 2 4 3 2 3
2 4 4 4 5 8 9 9 8 6 7 7 2 3 5 7 8 4 4 3 3 3 3 4 5 5 5 6 6 6 6 6 6 7 7 7 7 7 6 3 3 5 3 2 2 3 8 4 4 6 5 7 5 4 6 2 0 1 3 3 3 2 3 3 2 2 2 2 2 2 5 7 7 5
5 3 3 3 5 7 8 9 9 8 2 7 4 8 9 9 6 5 4 4 4 4 3 4 5 5 5 6 6 6 6 6 5 6 6 6 7 8 8 8 7 6 3 3 3 3 4 5 4 9 8 7 10 4 4 4 2 1 3 3 3 2 1 2 4 3 2 2 2 4 6 11 11 8
2 2 2 2 7 8 9 8 6 7 3 3 9 12 10 8 5 4 4 4 4 3 3 5 5 5 4 5 6 5 4 5 4 6 5 6 6 7 7 8 8 7 7 6 5 6 7 7 6 6 11 11 11 9 6 2 3 3 5 3 3 2 2 3 4 3 3 2 5 5 5 5 4 6
0 1 4 7 7 8 9 8 4 6 7 8 8 11 8 5 3 4 4 4 5 4 3 3 3 3 3 3 3 1 2 3 4 5 6 5 6 6 8 9 9 8 6 5 6 6 6 9 10 8 6 6 9 6 8 7 4 5 5 5 4 4 4 4 4 5 5 6 5 6 5 4 4 2
3 4 5 6 7 7 6 3 2 3 2 5 8 6 3 3 4 5 5 4 4 4 2 3 3 3 3 4 3 3 4 6 5 4 5 7 7 7 7 10 10 9 9 9 8 6 7 8 8 8 8 6 6 8 6 7 5 3 4 6 5 3 5 5 6 5 6 6 6 6 5 5 5 4
2 3 3 3 6 7 7 4 2 2 3 4 3 2 1 2 4 5 5 5 4 4 4 3 3 2 2 1 4 5 6 6 5 4 5 7 6 6 6 9 8 8 8 8 8 7 6 6 6 8 10 7 7 6 5 7 7 6 4 4 5 5 2 4 6 6 5 5 6 6 7 7 7 7
3 2 3 3 3 4 3 3 3 2 1 2 3 2 1 2 4 4 5 5 4 3 3 3 2 2 2 4 3 3 5 4 4 3 4 4 5 4 4 8 7 6 7 8 9 9 9 7 7 7 7 8 9 5 7 7 7 7 5 5 6 5 5 6 5 6 4 5 7 8 7 7 7 7
1 1 3 4 4 4 4 4 3 3 3 2 2 3 3 4 5 5 5 5 5 4 4 4 3 3 3 3 2 3 3 3 3 3 7 5 7 6 8 9 6 6 7 7 7 8 8 9 9 10 8 7 5 7 9 7 5 4 7 4 6 6 5 5 6 5 3 6 6 6 7 7 6 6
1 2 2 3 3 3 3 4 2 2 3 4 5 4 3 5 5 5 5 5 4 4 4 3 4 3 4 4 4 4 4 2 4 4 5 5 5 7 7 8 6 5 5 6 6 6 6 7 9 9 10 9 8 7 7 8 5 5 5 6 6 6 3 4 5 4 6 4 5 6 5 6 5 5
0 2 3 4 3 3 3 3 1 1 1 2 2 3 4 4 5 5 4 4 4 4 4 3 4 4 4 4 4 6 5 5 4 6 5 6 7 7 7 8 6 6 6 6 5 4 4 5 7 8 7 7 8 8 7 5 7 6 6 6 4 6 4 3 5 5 5 6 4 4 3 3 6 5
3 3 4 5 4 2 2 4 2 3 4 3 4 3 5 4 5 6 5 4 5 4 5 5 4 4 5 5 6 6 6 6 6 6 6 7 7 7 7 7 6 6 6 5 3 3 4 5 6 8 7 5 5 5 5 7 5 4 7 2 2 3 3 4 3 4 5 5 5 4 5 2 3 5
4 4 5 5 5 4 4 4 4 4 5 4 3 4 5 4 4 5 4 5 5 5 5 5 5 5 6 6 6 5 6 7 6 6 6 6 7 7 7 6 6 6 7 5 4 4 3 4 4 8 7 7 7 5 1 4 7 5 5 6 1 2 2 3 5 6 4 4 5 5 2 1 2 3
6 5 5 5 5 5 5 5 2 3 3 3 3 3 3 4 4 4 4 5 6 5 5 6 5 5 6 6 7 6 6 5 6 7 7 7 7 6 7 7 6 6 6 4 5 5 5 6 6 5 7 7 7 4 3 1 2 5 5 4 4 0 2 6 5 4 3 1 3 1 1 2 1 2
6 5 6 6 6 6 6 6 5 5 3 3 4 5 5 4 5 5 6 5 6 6 5 6 5 5 6 5 6 7 7 7 7 7 7 7 7 8 6 7 6 3 6 6 6 5 6 6 6 6 7 7 6 5 4 2 1 0 4 5 4 6 2 5 3 1 2 3 3 0 1 1 2 3
6 5 6 5 6 5 6 4 5 6 6 6 6 6 6 6 6 5 6 6 6 5 6 6 6 5 5 6 6 6 6 6 7 7 7 7 6 7 7 6 7 6 6 6 7 5 6 5 3 5 5 5 4 4 5 4 2 0 2 4 5 5 5 3 3 2 3 1 1 4 5 5 5 4
5 6 6 4 5 6 5 6 6 6 6 6 6 6 7 7 7 6 7 7 6 7 6 6 6 6 6 6 6 8 7 6 6 6 7 7 7 7 8 7 5 5 7 5 5 6 5 2 1 2 4 3 3 3 4 4 2 3 5 5 7 9 7 5 1 1 0 0 1 2 1 2 1 3
6 6 5 3 5 6 6 6 6 7 7 7 7 7 7 7 8 7 6 5 6 6 7 7 6 6 6 6 6 7 8 7 7 7 7 8 7 6 6 6 7 4 7 6 5 4 2 1 1 3 4 5 5 5 2 2 0 2 2 5 6 5 3 5 6 2 0 1 1 2 1 2 1 1
6 6 6 5 2 3 4 6 8 8 8 7 7 7 7 7 6 7 6 6 6 7 7 7 7 7 7 6 6 7 8 7 7 8 7 8 8 8 6 6 6 6 6 6 2 1 1 0 3 7 6 6 2 3 3 1 1 1 2 4 5 6 7 6 5 4 3 2 3 3 3 1 3 0
7 6 6 4 3 2 3 6 7 7 8 8 7 7 7 7 7 7 7 7 7 7 7 7 7 7 7 7 6 6 7 8 8 8 8 7 7 7 7 5 5 5 5 5 3 1 1 4 4 5 5 3 1 3 2 1 2 2 2 3 3 5 5 6 7 6 4 4 4 1 4 7 6 2
6 7 6 5 4 4 5 6 7 7 7 7 7 7 6 6 7 7 6 7 7 7 7 7 7 7 7 7 7 7 6 6 7 7 7 7 7 7 7 7 7 6 6 6 6 3 2 2 1 3 4 2 1 1 2 2 1 1 1 1 3 3 3 2 4 4 5 4 3 4 4 1 3 3
Wind_Direction
293 284 284 277 275 270 257 243 233 228 218 217 219 216 227 223 235 238 239 244 232 275 205 223 246 209 214 211 197 193 206 210 203 195 203 207 213 214 215 217 218 217 215 214 212 211 212 213 212 212 210 211 214 216 215 213 212 212 217 220 222 225 227 228 226 223 224 226 231 235 234 230 229 230
301 281 285 290 285 271 259 258 244 230 221 220 219 222 223 225 230 226 236 256 208 254 257 212 243 210 214 209 208 204 211 216 200 197 200 208 214 213 211 213 214 215 216 216 215 215 214 213 212 210 210 211 215 217 218 219 218 213 212 215 219 222 225 226 226 225 224 227 231 232 233 233 235 235
305 297 285 281 279 281 269 260 253 241 227 222 218 221 220 224 229 231 223 248 247 193 238 246 229 206 218 199 196 210 219 219 205 203 204 210 215 211 212 212 211 211 213 215 216 217 217 215 213 212 212 213 217 220 219 218 220 217 212 211 212 215 219 222 227 229 226 227 232 235 233 234 235 235
313 298 296 288 276 277 273 269 260 254 240 225 223 219 223 229 232 240 238 235 251 217 218 252 268 231 220 195 197 214 216 215 203 211 206 214 217 213 218 213 211 210 211 212 214 215 216 217 215 213 212 212 216 218 220 221 221 215 208 207 210 211 214 216 225 229 229 229 231 235 237 234 234 237
321 316 307 297 283 279 280 275 272 259 249 241 233 224 220 228 221 224 227 233 251 253 220 230 257 271 234 218 204 208 209 208 212 215 216 208 207 209 210 209 211 211 211 211 212 212 213 216 216 215 213 212 214 216 216 215 216 214 207 206 209 210 211 213 218 223 228 231 233 233 235 237 237 238
318 310 311 312 303 283 272 272 266 256 254 241 243 234 225 225 223 219 240 235 241 258 226 254 239 265 222 233 206 204 199 214 203 219 225 215 207 208 205 202 208 208 211 211 210 209 209 212 213 213 213 211 206 208 211 211 211 212 210 207 209 209 210 212 216 221 225 227 231 235 237 238 239 238
310 312 319 315 312 304 289 276 272 264 256 253 249 243 230 233 226 217 223 234 237 244 246 222 251 237 250 224 230 217 215 209 191 214 221 213 205 211 203 205 209 200 206 207 209 210 210 211 212 212 212 212 205 203 206 208 208 210 211 209 207 207 208 210 215 220 223 226 229 231 233 234 234 235
303 305 317 316 311 304 292 282 275 265 259 251 248 245 235 227 230 228 228 230 237 237 245 219 217 228 212 272 298 211 196 184 210 219 235 214 213 214 211 209 209 198 202 204 207 211 214 215 215 213 211 209 207 204 205 208 208 209 211 211 210 209 208 209 214 220 224 226 229 231 236 237 239 241
299 305 308 305 306 302 294 285 275 268 260 254 245 240 240 233 228 222 219 227 229 234 232 233 221 209 235 305 303 271 177 213 236 213 215 212 209 213 216 221 219 202 196 205 207 210 214 216 215 215 214 211 209 206 207 209 210 211 212 213 212 210 209 210 215 219 223 226 227 230 231 231 229 232
301 298 297 297 297 291 280 279 276 275 270 256 244 241 232 229 225 222 220 221 222 226 241 241 244 216 208 236 234 252 214 193 232 256 246 229 214 206 210 218 217 197 187 201 212 214 216 218 215 213 211 211 211 209 209 209 210 211 213 214 212 209 208 210 213 216 218 220 222 224 228 230 232 238
296 293 289 290 292 288 270 265 280 299 296 280 261 244 242 232 222 215 211 206 195 199 229 235 232 234 218 205 229 236 263 221 215 230 232 242 228 219 211 218 207 176 192 232 215 208 206 209 208 209 210 211 211 210 209 209 208 209 211 210 209 209 212 214 215 216 219 221 222 226 230 231 230 232
293 290 289 286 286 278 268 258 269 276 286 277 264 255 235 227 228 226 213 204 206 205 219 229 235 229 236 228 219 121 166 254 279 242 243 233 230 225 216 216 206 189 187 200 186 180 181 197 198 197 201 207 210 209 208 208 210 211 210 207 206 208 212 215 217 219 220 217 216 220 225 225 224 227
298 297 292 294 287 287 296 301 347 326 295 268 259 260 230 223 218 227 214 208 209 220 215 223 211 216 231 226 195 184 175 192 221 202 213 256 247 253 241 231 207 178 191 181 138 144 149 142 158 133 157 200 201 208 205 214 217 219 215 206 203 205 207 210 212 213 212 204 204 214 218 208 208 216
302 294 302 302 314 329 326 357 90 96 28 17 18 341 302 250 207 220 222 212 216 211 204 207 196 208 226 231 218 219 220 223 240 200 206 230 237 225 232 243 250 180 161 155 124 103 124 127 121 138 176 168 192 187 189 208 206 217 208 195 195 201 206 206 204 210 205 193 205 222 226 166 195 200
297 308 308 304 317 334 351 9 103 54 60 72 65 42 40 29 255 195 166 182 168 157 179 180 183 204 243 248 235 231 232 211 205 220 222 224 214 215 206 207 239 237 157 147 121 117 115 114 105 59 45 27 27 32 77 195 208 185 176 178 176 176 172 167 144 109 100 95 81 75 86 87 130 147
290 297 300 299 315 327 342 29 111 113 88 102 97 80 62 53 43 43 67 124 117 153 159 145 164 230 240 256 272 257 191 215 217 228 221 220 214 225 221 210 198 207 161 146 119 76 49 64 82 70 44 48 39 30 73 104 109 108 106 104 106 109 107 104 103 103 105 106 102 95 90 106 104 102
285 291 304 315 347 344 357 16 17 119 105 37 42 46 45 52 49 28 28 22 350 321 323 185 231 233 295 289 291 12 354 340 271 221 221 218 221 217 267 243 249 296 276 100 94 81 40 36 74 71 48 46 62 47 56 86 93 94 96 97 97 97 98 97 92 88 88 92 93 87 76 53 59 117
276 299 309 321 328 343 1 6 341 176 158 139 55 10 15 33 24 25 16 360 9 9 300 217 221 236 4 293 310 321 340 284 254 234 231 221 214 215 227 316 230 342 319 161 126 89 53 45 74 67 46 45 56 59 61 76 84 88 88 90 90 90 91 91 94 97 94 85 78 76 60 37 33 101
310 329 310 290 280 297 328 351 346 299 223 134 88 47 26 23 44 36 13 1 353 11 39 41 56 22 338 300 296 293 285 241 254 243 240 234 215 103 89 89 62 43 8 280 112 99 100 80 81 65 64 58 66 59 50 53 71 77 78 77 77 82 87 100 102 99 98 94 74 59 79 98 83 60
313 327 311 313 313 312 294 348 358 325 303 128 102 61 54 33 27 55 47 16 28 59 71 70 70 43 313 306 295 297 294 274 265 190 103 82 112 142 155 122 339 38 11 357 104 115 112 105 100 89 73 72 77 62 60 45 52 64 77 84 85 73 69 70 61 55 46 44 38 29 32 44 81 67
305 324 105 14 320 305 294 327 332 307 250 156 143 136 133 111 55 69 66 52 59 63 78 94 101 271 312 337 30 24 342 322 354 104 94 112 141 149 138 62 27 344 2 34 78 107 109 130 112 102 75 77 74 66 59 55 55 59 54 49 51 59 47 38 41 34 22 14 13 20 21 30 74 104
313 351 11 5 4 317 301 328 313 297 232 168 159 156 142 139 138 144 198 122 77 137 180 99 64 40 24 11 32 32 20 27 31 103 155 194 124 113 120 96 323 134 58 35 103 94 113 131 126 111 124 88 58 68 66 57 52 44 63 60 53 53 60 57 53 48 35 23 19 34 36 25 27 65
292 303 314 329 346 332 313 319 312 294 242 174 166 167 155 159 163 177 201 126 67 46 31 22 14 15 13 15 20 20 19 32 36 40 39 66 114 119 121 137 152 34 45 3 308 107 147 132 187 133 121 82 87 93 96 72 58 45 56 81 67 48 42 34 25 20 18 26 29 27 28 21 31 56
279 299 314 319 332 341 328 325 318 312 271 198 178 172 172 165 170 169 127 103 91 81 74 44 38 33 14 25 29 33 27 23 31 30 26 33 66 107 132 311 62 119 110 314 320 111 129 151 164 318 79 131 130 105 81 74 67 61 97 96 93 58 18 22 15 4 30 48 47 20 3 355 22 73
241 291 301 301 333 337 326 322 318 315 264 240 182 196 167 178 153 138 119 118 104 77 66 56 43 34 31 33 36 39 39 31 28 34 32 39 50 81 72 76 93 83 80 342 310 121 133 163 124 89 63 65 94 108 87 114 147 185 211 73 89 83 50 35 47 20 359 32 62 64 54 106 39 75
271 257 270 298 331 337 326 331 331 326 267 214 228 179 131 126 130 130 111 94 67 62 57 51 46 38 40 42 40 42 39 34 38 51 52 48 55 53 66 58 92 103 76 5 119 117 122 128 143 109 107 103 72 95 120 98 104 343 10 48 67 50 97 102 75 49 34 354 31 10 106 120 165 170
234 240 262 289 327 326 327 336 342 345 171 158 127 126 127 133 134 103 77 81 73 60 48 57 59 42 46 57 50 47 47 33 43 49 57 59 63 64 55 62 63 80 86 53 50 83 92 99 120 127 116 114 119 106 88 114 100 32 63 55 62 48 258 139 90 70 35 23 0 21 71 79 76 75
286 268 280 300 317 319 321 324 349 359 339 133 138 128 133 129 108 95 97 84 84 71 54 63 60 58 46 72 66 58 48 56 58 63 57 56 60 68 68 60 60 53 48 47 49 72 92 104 90 103 126 133 129 132 122 59 98 99 101 69 96 41 10 46 55 52 29 25 44 26 37 34 54 88
329 322 315 327 323 319 315 325 33 47 76 105 112 114 124 127 108 112 108 109 94 80 77 78 75 73 69 88 99 75 58 59 58 67 52 54 55 64 74 67 58 48 44 42 47 59 89 107 112 114 106 112 111 116 123 136 136 138 140 124 71 21 22 24 48 36 31 44 45 37 28 6 30 65
311 313 322 318 326 322 320 337 46 91 99 124 128 135 146 105 129 129 126 118 108 112 111 105 107 122 95 78 60 53 55 62 48 58 65 64 42 41 59 64 45 39 37 33 37 48 74 95 111 110 102 93 103 119 126 125 105 104 109 116 144 115 41 27 40 36 44 47 39 40 13 35 40 53
294 293 284 284 283 282 282 266 206 150 142 131 147 181 171 130 131 139 139 147 138 134 128 113 106 97 80 50 62 50 62 68 44 48 84 79 61 61 64 77 63 50 34 37 39 40 59 76 87 111 109 97 74 76 98 99 101 90 58 56 68 87 324 21 40 42 35 53 47 38 33 29 36 33
267 272 289 328 348 355 352 0 23 54 90 156 202 193 186 175 148 134 115 90 101 108 104 97 81 43 50 72 60 50 61 66 41 25 58 71 58 23 68 78 61 57 50 37 40 38 51 54 72 63 81 105 108 92 71 74 92 100 83 71 83 69 41 56 39 32 22 63 53 43 35 35 34 25
222 330 9 12 0 10 359 354 28 48 67 76 126 131 132 141 134 126 136 148 151 144 116 119 118 110 81 62 57 75 60 35 30 30 73 57 84 62 69 82 74 68 76 56 49 46 52 61 63 74 75 60 68 106 108 82 46 77 102 89 81 63 43 39 57 31 23 60 58 52 42 27 28 27
342 1 6 348 352 342 10 356 13 46 52 81 84 85 117 141 136 137 146 149 143 117 115 129 112 110 107 104 112 106 99 38 28 16 70 70 75 78 75 81 71 65 77 73 57 49 54 68 75 69 71 71 64 55 85 105 103 83 85 88 78 79 48 71 56 52 60 92 101 64 41 19 7 11
19 319 326 307 312 317 321 306 289 211 174 192 149 166 155 143 130 136 153 146 123 117 118 117 118 117 117 123 125 125 128 111 74 57 52 79 69 81 85 85 73 64 69 61 44 4 40 61 83 80 59 57 65 42 48 93 118 105 93 63 89 91 64 45 67 49 59 37 54 84 75 39 18 350
244 244 261 280 285 282 276 259 234 186 210 216 188 156 128 152 154 158 166 153 135 128 128 133 136 129 116 113 115 119 123 116 109 105 87 86 87 77 73 78 86 72 69 65 52 17 54 44 77 90 84 53 66 51 31 11 58 138 94 72 15 80 86 79 67 63 54 52 48 88 75 47 345 347
225 235 237 251 266 272 269 259 226 194 191 190 173 152 143 156 170 160 151 138 135 144 150 144 137 118 104 102 100 106 120 120 119 111 98 90 91 94 87 71 73 78 72 41 40 36 61 72 69 103 99 86 92 101 86 308 3 31 117 114 59 27 83 68 56 47 39 80 54 64 94 98 354 324
229 233 233 245 254 267 261 258 214 204 209 171 159 149 156 144 137 135 138 131 139 138 134 121 113 107 111 117 113 102 91 99 111 110 115 113 103 93 100 104 91 82 86 56 53 50 61 92 87 102 111 118 117 113 116 346 356 359 19 116 101 121 78 78 55 52 12 16 100 117 120 91 294 293
233 233 232 238 244 242 245 231 190 182 176 152 157 149 141 134 132 134 139 144 146 134 120 115 123 129 124 120 121 127 122 115 112 119 119 118 120 120 116 110 96 83 86 67 51 47 54 69 93 112 118 126 136 167 163 137 76 226 333 11 133 103 78 112 93 59 64 32 341 346 213 257 273 358
233 219 236 241 251 227 229 205 183 166 167 175 163 154 140 144 147 143 140 146 141 136 133 135 131 119 116 127 117 104 104 121 130 131 133 131 128 125 124 120 121 118 87 84 72 55 66 78 125 145 150 164 184 183 156 144 136 298 334 347 31 121 162 128 77 69 353 303 102 46 355 356 19 330
226 233 245 226 265 251 203 193 186 169 175 177 163 159 152 147 145 157 156 148 137 132 132 142 141 139 142 141 137 128 117 110 110 123 126 125 125 126 128 121 106 113 107 94 103 89 92 115 100 75 101 99 85 69 42 40 26 329 334 312 338 8 16 42 96 132 313 207 91 64 10 352 327 348
213 231 247 237 241 240 204 180 179 175 176 174 164 160 157 156 158 154 146 141 133 133 138 145 143 135 138 138 133 125 127 134 131 132 137 131 121 121 129 122 121 123 110 126 124 137 164 33 123 93 65 67 51 72 106 142 250 307 294 306 314 330 5 27 22 30 179 141 80 25 10 2 22 14
226 233 251 253 226 181 208 193 173 173 176 171 166 156 147 144 140 141 144 144 143 140 145 148 147 142 145 146 142 134 128 132 135 136 141 142 141 142 143 144 142 147 135 145 163 132 35 343 69 67 60 69 70 108 114 207 204 257 308 331 319 329 330 2 9 14 41 301 240 184 164 159 124 316
229 236 240 243 239 190 187 215 174 174 167 170 162 150 150 152 158 164 155 151 150 153 154 150 152 148 149 149 139 132 135 144 143 139 145 152 150 145 143 146 146 145 136 133 128 98 45 62 61 95 80 64 87 78 81 56 344 269 263 289 317 347 330 325 339 353 27 32 35 314 225 196 200 201
220 227 237 231 212 200 187 218 182 167 164 157 152 156 157 155 160 164 159 155 155 152 152 155 155 157 148 148 139 141 155 145 139 140 137 138 142 143 145 148 147 144 152 159 134 153 135 106 52 54 83 110 119 128 164 166 211 229 278 354 313 305 299 335 15 344 340 337 316 43 47 180 198 184